Flag for U.S.A. Weather past 2 weeks in Midway, Midway Atoll, U.S.A.

Now
82 °F

Haze.


Feels Like: 89 °F
Forecast: 82 / 87 °F
Wind: 12 mph from Southeast

Location: Midway Island Naval Air Facility

Current Time: Sep 1, 2015 at 6:03:55 AM

Latest Report: Sep 1, 2015 at 4:56 AM


Visibility: 3 mi

Pressure: 30.82 "Hg

Humidity: 82%

Dew point: 76 °F

Location of MidwayLocation

Historic Weather in Midway — Graph

°F

Midway temperature yesterday

Maximum temperature yesterday: 88 °F (at 1:56 PM)
Minimum temperature yesterday: 82 °F (at 5:56 AM)
Average temperature yesterday: 84 °F

Past Weeks' High & Low Weather Summary

 TemperatureHumidityPressure
High88 °F (Aug 23, 11:56 AM)100% (Aug 23, 7:19 PM)30.97 "Hg (Aug 23, 7:19 PM)
Low73 °F (Aug 28, 3:01 AM)59% (Aug 20, 12:56 PM)29.65 "Hg (Aug 24, 4:05 PM)
Average82 °F80%30.59 "Hg
* Reported Aug 17 4:56 AM — Sep 1 4:15 AM, Midway, Weather by CustomWeather, © 2015

Note: Actual official high and low records may vary slightly from our data, if they occured in-between our weather recording intervals... More about our weather records

Advertising

Midway weather history for previous 24 hours

 ConditionsComfort  
Time TempWeatherWind HumidityBarometerVisibility
4:15 AM
Tue, Sep 1
82 °FPassing clouds.12 mph84%29.93 "Hg4 mi
3:56 AM83 °FHaze.10 mph85%30.83 "Hg3 mi
2:56 AM83 °FHaze.12 mph82%30.84 "Hg4 mi
2:08 AM82 °FHaze.13 mph84%29.95 "Hg3 mi
1:56 AM83 °FClear.12 mph85%30.85 "Hg2 mi
1:45 AM82 °FClear.14 mph89%29.95 "Hg2 mi
12:56 AM83 °FClear.12 mph82%30.85 "Hg3 mi
11:56 PM
Mon, Aug 31
82 °FClear.14 mph85%30.86 "Hg6 mi
11:35 PM82 °FHaze.9 mph84%29.97 "Hg6 mi
10:56 PM83 °FClear.10 mph85%30.88 "Hg3 mi
10:40 PM82 °FHaze.9 mph89%29.98 "Hg2 mi
9:56 PM83 °FHaze.8 mph82%30.88 "Hg4 mi
8:56 PM83 °FHaze.12 mph85%30.88 "Hg3 mi
8:11 PM82 °FClear.14 mph89%29.96 "Hg3 mi
7:56 PM84 °FClear.12 mph82%30.85 "Hg2 mi
7:03 PM84 °FHaze.7 mph79%29.95 "Hg3 mi
6:56 PM84 °FHaze.8 mph82%30.85 "Hg2 mi
5:56 PM85 °FSunny.9 mph80%30.84 "Hg3 mi
3:56 PM87 °FSunny.8 mph75%30.84 "Hg4 mi
2:56 PM87 °FHaze.7 mph77%30.84 "Hg5 mi
1:56 PM88 °FHaze.9 mph72%30.85 "Hg5 mi
12:56 PM87 °FHaze.9 mph75%30.86 "Hg5 mi
11:56 AM87 °FSunny.10 mph75%30.87 "Hg6 mi
10:56 AM87 °FSunny.12 mph75%30.87 "Hg4 mi
9:56 AM86 °FHaze.9 mph80%30.87 "Hg3 mi
8:56 AM85 °FHaze.10 mph83%30.86 "Hg3 mi
8:18 AM84 °FHaze.8 mph84%29.95 "Hg2 mi
7:56 AM83 °FScattered clouds.9 mph85%30.84 "Hg3 mi
6:56 AM82 °FFog.8 mph88%30.83 "Hg2 mi
6:44 AM82 °FFog.6 mph89%29.93 "Hg2 mi
Weather by CustomWeather, © 2015

See weather overviewHow to use our weather pages